Terminal Aerodrome Forecast
Issued by NWS

Home | Current Version | Previous Version | Text Only | Print | Product List | Glossary On
Versions: 1 2 3 4 5 6 7 8 9 10 11 12 13 14 15 16
000
FTUS43 KAPX 221125
TAFTVC
TAF
KTVC 221125Z 2212/2312 16006KT P6SM BKN080 OVC120
     FM221300 14006KT P6SM SCT070 BKN150
     FM230000 10005KT P6SM OVC100
     FM230300 09005KT P6SM -RA SCT015 OVC035
     FM230600 11008KT 5SM -RA BR OVC015
     FM230800 10010KT 4SM -RA BR OVC009=

USA.gov is the U.S. government's official web portal to all federal, state and local government web resources and services.